Location: Newark
(51.3318°N, 0.0053°E)
Time: 07:51:47
(UTC+00:00)

LO-87 - Pass Details

Date: 04 July 2022
Orbit: 450 x 466 km, 97.4° (Epoch: 15 August)

Event Time Altitude Azimuth Distance (km) Brightness Sun altitude
Exits shadow 23:22:18 33° 162° (SSE) 808 ? -15.3°
Maximum altitude 23:23:46 85° 78° (ENE) 473 ? -15.3°
Drops below altitude 10° 23:27:17 10° 348° (NNW) 1,635 ? -15.4°
Sets 23:29:21 0° 347° (NNW) 2,520 ? -15.5°
